Address 0xc951fdda901c0061028cda0dddb17d789fd74793 11

Txn Hash Method
Block
From
To
Value [Txn Fee]
0xb17e6ad9349b0291870a83f5ddb5bc163ab8e9c2241a814e490ff0952698b65f0x6549920d139713622022-09-26 3:24:292 days 36 mins ago0xc951fdda901c0061028cda0dddb17d789fd74793OUT0x2e1d0c56c6913fd6135f887080f7a14123a142a80 AVAX0.064629100
0x3c546151f2b69f431c17b8c8e54b072a48fb77b1bc2b020b48feeca61a1f861f0xbef1e500139697942022-09-26 2:56:192 days 1 hr ago0xc951fdda901c0061028cda0dddb17d789fd74793OUT0x2e1d0c56c6913fd6135f887080f7a14123a142a80 AVAX0.026724100
0xb82c18b8cdfdfcf5bf50ee08d9719317e0d92d6637bf570f084717abfd379f350x6549920d139689912022-09-26 2:42:132 days 1 hr ago0xc951fdda901c0061028cda0dddb17d789fd74793OUT0x2e1d0c56c6913fd6135f887080f7a14123a142a80 AVAX0.0638322100
0x9fcba07d48d2aeb6b850e99e7e67602d6c892acc4651e62ef0c9c43dc18cd61a0xbef1e500139676452022-09-26 2:18:392 days 1 hr ago0xc951fdda901c0061028cda0dddb17d789fd74793OUT0x2e1d0c56c6913fd6135f887080f7a14123a142a80 AVAX0.026724100
0x8b5aea2f695b84134b744f039065abd1051ade3242c73b14feab2aaf0f5f69360x6549920d139665052022-09-26 1:58:502 days 2 hrs ago0xc951fdda901c0061028cda0dddb17d789fd74793OUT0x2e1d0c56c6913fd6135f887080f7a14123a142a80 AVAX0.0649219100
0x21a524e211018f96e93494061e8d3adca2381957afecfa7965209a1e35420d750xbef1e500139654492022-09-26 1:40:322 days 2 hrs ago0xc951fdda901c0061028cda0dddb17d789fd74793OUT0x2e1d0c56c6913fd6135f887080f7a14123a142a80 AVAX0.028434100
0x7580c1f16eb48b5960af2d2c35ff59e31b33d773d90f88fb6107ccf6baeadf6a0x6549920d139640392022-09-26 1:15:462 days 2 hrs ago0xc951fdda901c0061028cda0dddb17d789fd74793OUT0x2e1d0c56c6913fd6135f887080f7a14123a142a80 AVAX0.066339100
0x9e7a779f11607d00f68e1e6cdbd54cb7a7bfcc0bf9ad6940616e7b3b566b24b00x6549920d139617802022-09-26 0:33:162 days 3 hrs ago0xc951fdda901c0061028cda0dddb17d789fd74793OUT0x2e1d0c56c6913fd6135f887080f7a14123a142a80 AVAX0.0655422100
0xab9abf297d663ace3cc02a0b267284e603ed71106d5ab05e3454de8f510a75730x6549920d139595052022-09-25 23:51:532 days 4 hrs ago0xc951fdda901c0061028cda0dddb17d789fd74793OUT0x2e1d0c56c6913fd6135f887080f7a14123a142a80 AVAX0.0649219100
0x646528bebb8f195b76a7d38a7192bdf3d3c315bc3d8b6a359a4d45981dbcae6b0x6549920d139572062022-09-25 23:08:492 days 4 hrs ago0xc951fdda901c0061028cda0dddb17d789fd74793OUT0x2e1d0c56c6913fd6135f887080f7a14123a142a80 AVAX0.068049100
0x657909a4eca57d2fc6c22f562eb5b1ed58f9e9a6c7ca33ffd1df85b8a09b07540x6549920d139548982022-09-25 22:25:462 days 5 hrs ago0xc951fdda901c0061028cda0dddb17d789fd74793OUT0x2e1d0c56c6913fd6135f887080f7a14123a142a80 AVAX0.0655422100
0x91271a4647eb403bce5db2ad372c2404fe97aa5c6502fcd1621f01def7ea89010x6549920d139525782022-09-25 21:42:552 days 6 hrs ago0xc951fdda901c0061028cda0dddb17d789fd74793OUT0x2e1d0c56c6913fd6135f887080f7a14123a142a80 AVAX0.0649219100
0xacc38b04044e535e8b2e2a86b6fc98a71221afd6ff1afcf1896715a49e8abc270x6549920d139502602022-09-25 20:59:322 days 7 hrs ago0xc951fdda901c0061028cda0dddb17d789fd74793OUT0x2e1d0c56c6913fd6135f887080f7a14123a142a80 AVAX0.068049100
0x619875c9b41ecba08f35d452defa88031315721d4d65491e8e3b4a1aa9b22acd0x6549920d139478772022-09-25 20:14:432 days 7 hrs ago0xc951fdda901c0061028cda0dddb17d789fd74793OUT0x2e1d0c56c6913fd6135f887080f7a14123a142a80 AVAX0.0655422100
0xdccdf6c0b7afd28c9f7b1c6b6fe7528968eca66febb9b1ad4c78f7c22929cd51Harvest139463982022-09-25 19:47:012 days 8 hrs ago0xc951fdda901c0061028cda0dddb17d789fd74793OUT0x951accccfdf619d3cd8cfe0e4823d8e80354eb410 AVAX0.0064688100
0x6bed46f597ccab38bdbc89b2b23b4fcf948b144a694239ebc860becc732bf1e20x6549920d139455342022-09-25 19:31:042 days 8 hrs ago0xc951fdda901c0061028cda0dddb17d789fd74793OUT0x2e1d0c56c6913fd6135f887080f7a14123a142a80 AVAX0.0649219100
0x2415dffee028a39f5ede892d408e103ebf68b522a9683ec09a3ab319bcff84d8Harvest139442072022-09-25 19:06:222 days 8 hrs ago0xc951fdda901c0061028cda0dddb17d789fd74793OUT0x951accccfdf619d3cd8cfe0e4823d8e80354eb410 AVAX0.0081911100
0xe733b7f1877a0b0fe63d79e4a897482aac106d83ad7b1429529ee660bde426d80x6549920d139431162022-09-25 18:44:562 days 9 hrs ago0xc951fdda901c0061028cda0dddb17d789fd74793OUT0x2e1d0c56c6913fd6135f887080f7a14123a142a80 AVAX0.068049100
0x879eb9618fbd418a947a337756d9e5eeb848656bffa8d14da19dc2ddbf301364Harvest139419982022-09-25 18:23:572 days 9 hrs ago0xc951fdda901c0061028cda0dddb17d789fd74793OUT0x951accccfdf619d3cd8cfe0e4823d8e80354eb410 AVAX0.0081911100
0x48072962a589665f83cf8a1c55f93ebdd1662915a75f7dccbdb74f6830db90140x6549920d139407332022-09-25 17:58:512 days 10 hrs ago0xc951fdda901c0061028cda0dddb17d789fd74793OUT0x2e1d0c56c6913fd6135f887080f7a14123a142a80 AVAX0.0672522100
0x3887bee8e3ccb993571bdaaeaa7523aa22919da9138a709807d041ba1970e5b0Harvest139397992022-09-25 17:40:212 days 10 hrs ago0xc951fdda901c0061028cda0dddb17d789fd74793OUT0x951accccfdf619d3cd8cfe0e4823d8e80354eb410 AVAX0.0064688100
0xfe6bcc82a06d9dbb9d37f5443bbebe59563992804f6668d8d4b2f2fd934d33c60x6549920d139382782022-09-25 17:10:522 days 10 hrs ago0xc951fdda901c0061028cda0dddb17d789fd74793OUT0x2e1d0c56c6913fd6135f887080f7a14123a142a80 AVAX0.0666319100
0x92d2b35cf9fa177ebfce524d1990c89dbf3d92bf6bf5ded5a33e110e17e3743cHarvest139374912022-09-25 16:55:102 days 11 hrs ago0xc951fdda901c0061028cda0dddb17d789fd74793OUT0x951accccfdf619d3cd8cfe0e4823d8e80354eb410 AVAX0.0064688100
0x0c9db15af51b0db467d4be3a71d39b0f06d8bed010b471e1d0114808aee354170x4ea4c6b3139363572022-09-25 16:25:242 days 11 hrs ago0xc951fdda901c0061028cda0dddb17d789fd74793OUT0x2e1d0c56c6913fd6135f887080f7a14123a142a80 AVAX0.022738100
0xd8041f92261ea3cd94270fd8a35ff975971f451fb56cbef832835e5d58b542cc0xab07211e139358152022-09-25 16:07:202 days 11 hrs ago0xc951fdda901c0061028cda0dddb17d789fd74793OUT0x2e1d0c56c6913fd6135f887080f7a14123a142a80 AVAX0.0210672100
[ Download CSV Export 
Parent Txn Hash Block From To Value
Loading

Contract Name:
0

Compiler Version
0

Optimization Enabled:
0

Other Settings:
-NA-
Block Transaction Gas Used Reward
Age Block Fee Address BC Fee Address Voting Power Jailed Incoming
Block Uncle Number Difficulty Gas Used Reward
Loading